DELTA 1 DEB, 7979

Orbit data source: Space-Track

DELTA 1 DEB, 7979 is space debris in SSO originally from a launch on Sun, 23 Jul 1972 UTC launched from the Air Force Western Test Range (AFWTR). Debris objects in space refer to the collection of defunct objects orbiting the Earth. Examples of debris include non-operational satellites, rocket bodies, and fragments generated from explosions, collisions, or faulty payload assembly.

Loading next visibility...
Identifier
7979, 1972-058DA
Orbit
SSO
Country
Flag of USUS
Related business
Manufacturer
Unknown
Mission
Spacecraft
Bus & Motor
Unknown
Mass
Unknown
Launch date (UTC)
1972-07-23 (54 years ago)
Launch vehicle
Unknown
Launch site
Air Force Western Test Range (AFWTR)
Object type
Payload
Rocket body
Debris
Shape & HBR
Unknown shape, 0.2 m
Radar Cross Section
Medium (>0.1 m² and <1 m²)

Expand to show TLE details & history
Last TLE update: 1 week ago

TLE from 1 week ago
0 DELTA 1 DEB
1 07979U 72058DA  26155.01866346  .00000340  00000-0  23075-3 0  9994
2 07979  97.8234 182.2594 0401358 198.4299 226.0291 13.71959261539532
Epoch: 2026-06-04T00:26Z
TLE epoch observation values (Epoch: 2026-06-04T00:26:52.522Z)
Latitude
60.39442°
Longitude
-90.8502°
Altitude
1,214.142 km
Speed
7.148 km/s
True Right ascension
11h 13m 21s
True Declination
60° 15' 19"
Sunlit
Object was in daylight at epoch
Visualization orbit readout
Latitude
Unknown
Longitude
Unknown
Altitude
Unknown
Speed
Unknown
Apparent Right ascension
Unknown
Apparent Declination
Unknown
Sunlit
N/A
Visualization observer readout
Local Sidereal Time
08:07:17
Azimuth
Unknown
Elevation
Unknown
Doppler factor
Unknown
Orbital elements
Apogee altitude
1,285.437 km
Perigee altitude
694.007 km
Semi-major axis
7,367.859 km
Eccentricity
0.04014
Inclination
97.8234°
RAAN
182.2594°
Arg. of periapsis
198.4299°
True anomaly
222.83228°
Mean anomaly
226.0291°
Eccentric anomaly
224.41958°
Mean motion
3.43187 °/min
Orbital period
104.9 mins
BSTAR
0.00023075
Loading maneuver chart data...
Computing Atmospheric mass density...
Loading historical data...
Loading historical data...
Loading historical data...
Loading historical data...
Loading historical data...
Loading historical data...
Loading historical data...

Documentation

Showing up to 5 results
|